Showing default

CHINASAT 9A, 42763

Orbit data source: Space-Track

CHINASAT 9A, 42763 is a payload satellite owned by China Satcom (CN) in GEO that was launched on Sun, 18 Jun 2017 UTC via a CHANG ZHENG 3B launch vehicle from the Xichang Space Center, China (XSC). Payload-class satellites include a variety of spacecraft equipped with specific instruments for various scientific and technological missions. These include communications satellites like Starlink; space stations such as the ISS; scientific satellites like the Hubble; Earth observation satellites from companies like Planet Labs, Umbra, and HawkEye 360; GPS; miniature CubeSats for education and research; and military/defense satellites.

Loading next visibility...
Identifier
42763, 2017-035A
Orbit
GEO
Country
Flag of CNCN / PRC
Related business
Manufacturer
CAST?
Mission
Non-operational Civil Communications
Bus & Motor
DFH-4?, DFH-4 LAE
Mass
~5,250 kg wet, ~2,500 kg dry
Launch date (UTC)
2017-06-18 (9 years ago)
Launch vehicle
CHANG ZHENG 3B
Launch site
Xichang Space Center, China (XSC)
Object type
Payload
Rocket body
Debris
Shape & HBR
Box + 2 Pan, 15.0 m
Radar Cross Section
34.063 m², Large (>1 m²)

Expand to show TLE details & history
Last TLE update: 2 days ago

TLE from 2 days ago
0 CHINASAT 9A
1 42763U 17035A   26171.43713086 -.00000206  00000-0  00000+0 0  9995
2 42763   4.9935  75.1913 0004361 327.0747 309.9152  0.99781671 33681
Epoch: 2026-06-20T10:29Z
TLE epoch observation values (Epoch: 2026-06-20T10:29:28.106Z)
Latitude
-4.96805°
Longitude
-73.83242°
Altitude
35,913.081 km
Speed
3.071 km/s
True Right ascension
23h 28m 44s
True Declination
-4° 57' 47"
Sunlit
Object was in daylight at epoch
Visualization orbit readout
Latitude
Unknown
Longitude
Unknown
Altitude
Unknown
Speed
Unknown
Apparent Right ascension
Unknown
Apparent Declination
Unknown
Sunlit
N/A
Visualization observer readout
Local Sidereal Time
21:39:14
Azimuth
Unknown
Elevation
Unknown
Doppler factor
Unknown
Orbital elements
Apogee altitude
35,944.058 km
Perigee altitude
35,907.16 km
Semi-major axis
42,303.746 km
Eccentricity
0.00044
Inclination
4.9935°
RAAN
75.1913°
Arg. of periapsis
327.0747°
True anomaly
309.87686°
Mean anomaly
309.9152°
Eccentric anomaly
309.89603°
Mean motion
0.24945 °/min
Orbital period
1,443.2 mins
BSTAR
0
Loading maneuver chart data...
Computing Atmospheric mass density...
Loading historical data...
Loading historical data...
Loading historical data...
Loading historical data...
Loading historical data...
Loading historical data...
Loading historical data...
Other satellites on launch #35 in the year 2017 (2017-06-18 UTC)

Documentation

Showing up to 5 results
|